Wetterdaten: aktuell Samstag, 16.02.2019 17:30
Datum Zeit Wetterhtte Helligkeit Boden -10cm Boden 5cm Temp S Luftfeuchte Luftdruck Regen Wind Richtung Richtung Sonnenschein UV Taupunkt Windchill Windben
16.02.2019 17:30 10,8 C -18,1 C 2,4 C 4,7 C 12,2 C 55 % 1024,8 hPa 0,0 l/m 3,7 km/h S-SO 161 0 min 0,0 UV-I 2,1 C 10,8 C 8,2 km/h
16.02.2019 17:25 11,2 C -17,0 C 2,4 C 4,9 C 12,6 C 55 % 1024,8 hPa 0,0 l/m 3,2 km/h S 184 0 min 0,0 UV-I 2,5 C 11,2 C 5,3 km/h
16.02.2019 17:20 11,5 C -16,2 C 2,3 C 4,9 C 12,9 C 54 % 1024,8 hPa 0,0 l/m 2,4 km/h S-SO 161 0 min 0,0 UV-I 2,5 C 11,5 C 4,0 km/h
16.02.2019 17:15 11,7 C -15,1 C 2,2 C 5,0 C 13,1 C 54 % 1024,8 hPa 0,0 l/m 2,4 km/h S-SO 161 0 min 0,0 UV-I 2,7 C 11,7 C 5,0 km/h
16.02.2019 17:10 12,0 C -14,6 C 2,2 C 5,0 C 13,4 C 53 % 1024,5 hPa 0,0 l/m 3,5 km/h W-SW 251 0 min 0,0 UV-I 2,7 C 12,0 C 2,9 km/h
16.02.2019 17:05 12,4 C -13,8 C 2,2 C 5,0 C 13,7 C 53 % 1024,5 hPa 0,0 l/m 4,0 km/h SW 229 0 min 0,0 UV-I 3,1 C 12,4 C 5,6 km/h
16.02.2019 17:00 12,7 C -13,5 C 2,2 C 5,1 C 14,1 C 52 % 1024,5 hPa 0,0 l/m 3,2 km/h S 184 0 min 0,0 UV-I 3,1 C 12,7 C 3,7 km/h
16.02.2019 16:55 13,1 C -13,1 C 2,2 C 5,3 C 14,3 C 52 % 1024,5 hPa 0,0 l/m 1,6 km/h S 184 0 min 0,0 UV-I 3,5 C 13,1 C 5,0 km/h
16.02.2019 16:50 13,3 C -12,9 C 2,2 C 5,5 C 14,5 C 52 % 1024,3 hPa 0,0 l/m 1,6 km/h S-SO 161 0 min 0,0 UV-I 3,7 C 13,3 C 0,0 km/h
16.02.2019 16:45 13,5 C -12,6 C 2,2 C 5,7 C 14,7 C 52 % 1024,3 hPa 0,0 l/m 2,9 km/h S 184 0 min 0,0 UV-I 3,8 C 13,5 C 3,2 km/h
16.02.2019 16:40 13,5 C -12,6 C 2,2 C 5,7 C 14,9 C 52 % 1024,3 hPa 0,0 l/m 3,5 km/h SW 229 0 min 0,0 UV-I 3,8 C 13,5 C 5,3 km/h
16.02.2019 16:35 13,2 C -12,2 C 2,2 C 5,7 C 15,2 C 52 % 1024,3 hPa 0,0 l/m 4,8 km/h S-SW 206 0 min 0,0 UV-I 3,6 C 13,2 C 5,8 km/h
16.02.2019 16:30 13,2 C -12,2 C 2,2 C 5,8 C 15,7 C 52 % 1024,6 hPa 0,0 l/m 5,0 km/h O-SO 116 0 min 0,0 UV-I 3,6 C 13,2 C 4,5 km/h
16.02.2019 16:25 12,9 C -12,1 C 2,2 C 5,9 C 16,1 C 52 % 1024,6 hPa 0,0 l/m 4,8 km/h S-SO 161 0 min 0,0 UV-I 3,3 C 12,9 C 3,7 km/h
16.02.2019 16:20 12,6 C -11,9 C 2,1 C 5,9 C 16,3 C 51 % 1024,6 hPa 0,0 l/m 5,8 km/h SO 139 0 min 0,0 UV-I 2,7 C 12,6 C 5,0 km/h
16.02.2019 16:15 12,7 C -11,7 C 2,1 C 5,8 C 17,0 C 51 % 1024,6 hPa 0,0 l/m 6,4 km/h S 184 0 min 0,0 UV-I 2,8 C 12,7 C 8,0 km/h
16.02.2019 16:10 12,7 C -11,4 C 2,1 C 5,8 C 17,6 C 52 % 1024,6 hPa 0,0 l/m 6,1 km/h W-SW 251 0 min 0,0 UV-I 3,1 C 12,7 C 8,8 km/h
16.02.2019 16:05 12,9 C -10,5 C 2,1 C 5,8 C 18,9 C 52 % 1024,6 hPa 0,0 l/m 6,4 km/h S-SO 161 0 min 0,0 UV-I 3,3 C 12,9 C 7,4 km/h
16.02.2019 16:00 12,8 C 9,4 C 2,1 C 5,8 C 20,3 C 51 % 1024,6 hPa 0,0 l/m 6,1 km/h S 184 0 min 0,0 UV-I 2,9 C 12,8 C 8,8 km/h
16.02.2019 15:55 13,1 C 36,3 C 2,1 C 5,9 C 21,3 C 52 % 1024,6 hPa 0,0 l/m 5,6 km/h S-SO 161 5 min 0,1 UV-I 3,5 C 13,1 C 6,6 km/h
16.02.2019 15:50 13,2 C 36,7 C 2,1 C 5,9 C 21,3 C 52 % 1024,4 hPa 0,0 l/m 7,2 km/h S 184 5 min 0,1 UV-I 3,6 C 12,7 C 3,7 km/h
16.02.2019 15:45 13,3 C 37,2 C 2,1 C 6,1 C 21,3 C 51 % 1024,4 hPa 0,0 l/m 7,7 km/h S-SO 161 5 min 0,1 UV-I 3,4 C 12,5 C 14,1 km/h
16.02.2019 15:40 13,5 C 37,2 C 2,1 C 6,0 C 21,9 C 51 % 1024,4 hPa 0,0 l/m 5,8 km/h S-SO 161 5 min 0,1 UV-I 3,6 C 13,5 C 19,9 km/h
16.02.2019 15:35 13,5 C -4,9 C 2,1 C 6,2 C 22,9 C 51 % 1024,4 hPa 0,0 l/m 5,3 km/h SW 229 0 min 0,1 UV-I 3,6 C 13,5 C 7,4 km/h
16.02.2019 15:30 13,7 C 34,9 C 2,1 C 6,2 C 23,8 C 51 % 1024,8 hPa 0,0 l/m 5,0 km/h SW 229 5 min 0,1 UV-I 3,8 C 13,7 C 7,4 km/h
16.02.2019 15:25 13,6 C 39,5 C 1,9 C 6,2 C 24,2 C 51 % 1024,8 hPa 0,0 l/m 5,3 km/h S 184 5 min 0,2 UV-I 3,7 C 13,6 C 6,4 km/h
16.02.2019 15:20 13,7 C 39,9 C 1,9 C 6,2 C 24,2 C 51 % 1024,8 hPa 0,0 l/m 6,4 km/h S 184 5 min 0,2 UV-I 3,8 C 13,7 C 12,5 km/h
16.02.2019 15:15 13,8 C 40,4 C 1,9 C 6,2 C 24,6 C 51 % 1024,8 hPa 0,0 l/m 6,4 km/h S-SO 161 5 min 0,2 UV-I 3,8 C 13,8 C 8,0 km/h
16.02.2019 15:10 13,8 C 40,7 C 1,9 C 6,3 C 25,1 C 52 % 1024,9 hPa 0,0 l/m 5,8 km/h S 184 5 min 0,2 UV-I 4,1 C 13,8 C 9,8 km/h
16.02.2019 15:05 13,6 C 41,0 C 1,9 C 6,3 C 25,3 C 52 % 1024,9 hPa 0,0 l/m 5,8 km/h S-SO 161 5 min 0,2 UV-I 3,9 C 13,6 C 11,4 km/h
16.02.2019 15:00 13,8 C 41,1 C 1,9 C 6,2 C 25,4 C 53 % 1024,9 hPa 0,0 l/m 5,3 km/h W 274 5 min 0,2 UV-I 4,4 C 13,8 C 4,0 km/h
16.02.2019 14:55 13,9 C 41,3 C 1,9 C 6,3 C 25,8 C 53 % 1024,9 hPa 0,0 l/m 5,8 km/h S-SW 206 5 min 0,2 UV-I 4,5 C 13,9 C 10,1 km/h
16.02.2019 14:50 13,7 C 41,4 C 1,9 C 6,2 C 25,7 C 53 % 1025,2 hPa 0,0 l/m 6,1 km/h S-SO 161 5 min 0,2 UV-I 4,3 C 13,7 C 8,2 km/h
16.02.2019 14:45 13,9 C 41,7 C 1,9 C 6,2 C 26,3 C 54 % 1025,2 hPa 0,0 l/m 6,4 km/h W-SW 251 5 min 0,2 UV-I 4,7 C 13,9 C 6,9 km/h
16.02.2019 14:40 13,9 C 41,7 C 1,9 C 6,3 C 26,4 C 54 % 1025,2 hPa 0,0 l/m 6,4 km/h W 274 5 min 0,2 UV-I 4,7 C 13,9 C 0,0 km/h
16.02.2019 14:35 13,7 C 41,8 C 1,9 C 6,3 C 26,5 C 55 % 1025,2 hPa 0,0 l/m 6,6 km/h S-SW 206 5 min 0,2 UV-I 4,8 C 13,6 C 10,9 km/h
16.02.2019 14:30 13,5 C 42,0 C 1,9 C 6,1 C 26,3 C 56 % 1025,6 hPa 0,0 l/m 6,6 km/h S 184 5 min 0,2 UV-I 4,9 C 13,4 C 13,5 km/h
16.02.2019 14:25 13,5 C 42,1 C 1,9 C 5,9 C 27,1 C 56 % 1025,6 hPa 0,0 l/m 5,6 km/h SO 139 5 min 0,2 UV-I 4,9 C 13,5 C 9,0 km/h
16.02.2019 14:20 13,5 C 42,0 C 1,9 C 5,9 C 27,0 C 57 % 1025,6 hPa 0,0 l/m 5,0 km/h SW 229 5 min 0,2 UV-I 5,2 C 13,5 C 10,1 km/h
16.02.2019 14:15 13,5 C 42,0 C 1,9 C 5,9 C 27,5 C 57 % 1025,6 hPa 0,0 l/m 4,8 km/h S-SO 161 5 min 0,3 UV-I 5,2 C 13,5 C 4,2 km/h
16.02.2019 14:10 13,3 C 42,1 C 2,0 C 5,9 C 28,1 C 58 % 1025,4 hPa 0,0 l/m 4,2 km/h S-SO 161 5 min 0,3 UV-I 5,2 C 13,3 C 8,5 km/h
_ Min-Zeit 08:05 05:45 15:25 08:00 07:35 16:20 16:50 - 08:25 - - - 17:30 08:05 01:11 16:50
Minimum _ -3,2 C -22,3 C 1,9 C -1,9 C -4,6 C 51 % 1024,3 hPa - 0,0 km/h - - - 0,0 UV-I -4,6 C -4,2 C 0,0 km/h
_ Max-Zeit 14:55 14:25 00:16 15:10 13:35 10:15 00:06 17:30 01:11 - - 15:55 13:25 13:25 14:45 15:40
Maximum _ 13,9 C 42,1 C 3,1 C 6,3 C 28,6 C 91 % 1029,1 hPa 0,0 l/m 9,8 km/h
S
- - 5 min 0,4 UV-I 6,3 C 13,9 C 19,9 km/h
S-SO
Durchschnitt _ 3,0 C 5,1 C 2,4 C 1,3 C 8,1 C 80 % 1026,6 hPa #0,0 l/m 4,2 km/h S - #7:35 h 0,3 UV-I -0,5 C 2,7 C 5,5 km/h